897  
ASUS41 KALY 250210  
RWRALY  
 
NEW YORK STATE HOURLY WEATHER ROUNDUP  
NATIONAL WEATHER SERVICE ALBANY NY  
1000 PM EDT FRI SEP 24 2021  
 
NOTE: "FAIR" INDICATES FEW OR NO CLOUDS BELOW 12,000 FEET WITH NO  
SIGNIFICANT WEATHER AND/OR NO S TO VISIBILITY
.  
 
NYZ032-033-038>043-046>054-057>066-NYZ062>081-082-084-250300-  
EAST  
 
 
CITY SKY/WX TMP DP RH WIND PRES REMARKS
 
ALBANY PTCLDY 55 51 86 CALM 30.07S  
GLENS FALLS CLEAR 50 49 96 CALM 30.06F  
POUGHKEEPSIE CLEAR 55 54 96 CALM 30.06S FOG  
NEWBURGH CLEAR 64 54 68 W7 30.07S  
MONTGOMERY CLEAR 53 51 93 CALM 30.07S  
WHITE PLAINS CLEAR 58 54 86 NW3 30.07R  
ISLIP PTCLDY 62 58 86 NW3 30.06S  
NEW YORK CITY PTCLDY 69 49 48 NW6 30.06S  
CENTRAL PARK CLEAR 65 50 58 MISG 30.10R  

 
 
NYZ005>009-017-018-044>046-055-056-250300-  
CENTRAL  
 
 
CITY SKY/WX TMP DP RH WIND PRES REMARKS
 
FULTON CLEAR 52 50 93 MISG 30.03R  
SYRACUSE CLEAR 54 52 93 SE5 30.03S  
ROME CLEAR 54 51 90 CALM 30.05S  
ELMIRA CLEAR 52 50 93 CALM 30.05R  
BINGHAMTON CLEAR 54 48 80 S6 30.06S  
MONTICELLO CLEAR 51 51 100 N3 30.10S  

 
 
NYZ026>034-041>043-087-250300-  
NORTH  
 
 
CITY SKY/WX TMP DP RH WIND PRES REMARKS
 
WATERTOWN CLEAR 56 50 80 S3 30.01R  
FORT DRUM NOT AVBL  
OGDENSBURG FAIR 54 52 94 S3 29.98S  
MASSENA CLOUDY 59 54 83 S3 30.01S  
SARANAC LAKE CLOUDY 50 49 96 CALM 30.04S  
PLATTSBURGH MOCLDY 56 51 84 CALM 30.03S  

 
 
NYZ001>004-010>016-019>021-085-250300-  
WEST  
 
 
CITY SKY/WX TMP DP RH WIND PRES REMARKS
 
NIAGARA FALLS CLEAR 58 51 78 S5 30.01S  
BUFFALO PTCLDY 59 51 75 S6 30.03R  
DUNKIRK CLEAR 58 50 75 SW6 30.04R  
JAMESTOWN CLEAR 55 48 77 SW5 30.07S  
WELLSVILLE CLEAR 55 45 68 W5 30.08S  
ROCHESTER CLEAR 55 52 89 W5 30.03R  
PENN YAN CLEAR 53 50 89 S3 30.04S  

 
 
KEY  
WCI = WIND CHILL INDEX  
VSB = VISIBILITY  
HX = HEAT INDEX  

 
 
 
CLICK HERE TO GO TO PREVIOUS BULLETINS.

The Nexlab NY Page
The Nexlab VT Page
The Nexlab MA Page
The Nexlab CT Page Main Text Page